sat.trackr.live / text

‹ back to catalog

STARLINK-34135

NORAD 63964 · 2025-099N

PAYLOAD ACTIVE UNKNOWN

§ Identity

Operator
Country
US
Launch date
2025-05-13
Launch site
AFETR
Launch vehicle
Mass (kg)
RCS (m²)

Purposes: comms

External: N2YO · Heavens-Above · Gunter

§ Orbital elements

Epoch: 2026-05-24T21:45:16.009056Z

Period
94.27 min
Inclination
43.0001°
Eccentricity
0.0002944
Mean motion
15.27567727 rev/d
Perigee alt
481.1 km
Apogee alt
485.1 km
Semi-major
6,861.2 km
B*
3.0433e-4
RAAN
105.7013°
Arg perigee
282.4029°
Mean anomaly
77.6493°
Rev number
5,899

§ Raw data

STARLINK-341351 63964U 25099N   26144.90643529  .00008119  00000+0  30433-3 0  99922 63964  43.0001 105.7013 0002944 282.4029  77.6493 15.27567727 58997

JSON: /api/v1/satellites/63964 · /tle

For live sub-satellite position, see the globe view (requires WebGL).

§ Visibility from observer

Set your observer location to see the next 7 days of passes ≥ 10°. The values pass through the URL so the page stays shareable.

No JS? Fill the form by hand. The geolocation button needs JavaScript.